Home > Weather > Augsburg > Past weeks

Flag for Germany Past Weather in Augsburg, Bavaria, Germany — Yesterday and Last 2 Weeks

Now
79 °F

Scattered clouds.


Feels Like: 80 °F
Forecast: 60 / 72 °F
Wind: 9 mph from North

Location: Augsburg Airport

Current Time: Jul 26, 2016 at 4:13:23 PM

Latest Report: Jul 26, 2016 at 3:20 PM


Visibility: N/A

Pressure: 30.09 "Hg

Humidity: 58%

Dew Point: 63 °F

Location of AugsburgLocation

Past Weather in Augsburg — Graph

°F

Augsburg Temperature Yesterday

Maximum temperature yesterday: 79 °F (at 1:50 PM)
Minimum temperature yesterday: 59 °F (at 6:20 AM)
Average temperature yesterday: 72 °F

High & Low Weather Summary for the Past Weeks

 TemperatureHumidityPressure
High88 °F (Jul 11, 2:20 PM)100% (Jul 12, 5:50 AM)30.33 "Hg (Jul 12, 5:50 AM)
Low50 °F (Jul 15, 6:50 AM)27% (Jul 20, 5:20 PM)29.89 "Hg (Jul 11, 3:20 PM)
Average70 °F66%30.10 "Hg
* Reported Jul 11 2:20 PM — Jul 26 2:20 PM, Augsburg, Weather by CustomWeather, © 2016

Note: Actual official high and low records may vary slightly from our data, if they occured in-between our weather recording intervals... More about our weather records

Advertising

Augsburg Weather History for the Previous 24 Hours

Scroll right to see more
 ConditionsComfort  
Time TempWeatherWind HumidityBarometerVisibility
2:20 PM
Tue, Jul 26
79 °FScattered clouds.14 mph58%30.09 "HgN/A
1:50 PM79 °FScattered clouds.10 mph51%30.09 "HgN/A
1:20 PM77 °FScattered clouds.7 mph57%30.09 "HgN/A
12:50 PM79 °FScattered clouds.5 mph51%30.12 "HgN/A
12:20 PM79 °FScattered clouds.3 mph58%30.12 "HgN/A
11:50 AM75 °FScattered clouds.3 mph61%30.12 "HgN/A
11:20 AM75 °FScattered clouds.5 mph65%30.12 "HgN/A
10:50 AM75 °FScattered clouds.7 mph65%30.12 "HgN/A
10:20 AM73 °FPassing clouds.5 mph78%30.12 "HgN/A
9:50 AM73 °FScattered clouds.3 mph83%30.12 "HgN/A
9:20 AM72 °FSunny.3 mph83%30.15 "Hg10 mi
8:50 AM70 °FSunny.2 mph88%30.12 "Hg10 mi
8:20 AM68 °FPassing clouds.3 mph94%30.12 "HgN/A
7:50 AM66 °FClear.3 mph100%30.12 "Hg6 mi
7:20 AM63 °FClear.1 mph100%30.12 "Hg5 mi
6:50 AM61 °FClear.2 mph100%30.12 "Hg4 mi
6:20 AM61 °FFog.2 mph100%30.12 "Hg4 mi
8:50 PM
Mon, Jul 25
70 °FScattered clouds.2 mph78%30.12 "HgN/A
8:20 PM70 °FScattered clouds.8 mph78%30.12 "HgN/A
7:50 PM72 °FLight rain. Scattered clouds.7 mph78%30.12 "HgN/A
7:20 PM72 °FThundershowers. Partly sunny.7 mph73%30.09 "HgN/A
6:50 PM73 °FPartly sunny.2 mph74%30.09 "HgN/A
6:20 PM75 °FScattered showers. Scattered clouds.5 mph69%30.07 "HgN/A
5:50 PM75 °FSunny.6 mph69%30.07 "Hg10 mi
5:20 PM77 °FSunny.9 mph61%30.09 "Hg10 mi
4:50 PM73 °FPassing clouds.3 mph74%30.09 "HgN/A
4:20 PM70 °FSprinkles. Scattered clouds.6 mph78%30.09 "HgN/A
Weather by CustomWeather, © 2016

See weather overviewHow to use our weather pages